Regional Weather Roundup
Issued by NWS

Home | Current Version | Previous Version | Text Only | Print | Product List | Glossary On
Versions: 1 2 3 4 5 6 7 8 9 10 11 12 13 14 15 16 17 18 19 20 21 22 23 24 25 26 27 28 29 30 31 32 33 34 35 36 37 38 39 40 41 42 43 44 45 46 47 48 49 50
177
ASUS44 KFWD 271615
RWRTX
NORTH TEXAS HOURLY WEATHER ROUNDUP
NATIONAL WEATHER SERVICE FORT WORTH TX
1100 AM CDT FRI MAY 27 2016

NOTE: "FAIR" INDICATES FEW OR NO CLOUDS BELOW 12,000 FEET WITH NO
SIGNIFICANT WEATHER AND/OR OBSTRUCTIONS TO VISIBILITY.

TXZ118-119-271700-
DALLAS/FORT WORTH METROPLEX

CITY           SKY/WX    TMP DP  RH WIND       PRES   REMARKS
DFW AIRPORT    TSTM      67  64  90 SE20G32   29.76F
DALLAS LOVE    LGT RAIN  67  65  93 SE20G28   29.79F
FTW MEACHAM    LGT RAIN  67  63  87 SE23G31   29.74F
DAL-EXECUTIVE  LGT RAIN  66  64  93 SE12G23   29.79F
FTW-ALLIANCE   LGT RAIN  66  63  90 S8G31     29.79R
FTW-NAS-JRB    TSTM      66  63  90 S15       29.79S
FTW-SPINKS     TSTM      64  63  94 SE15G21   29.79F
ARLINGTON      CLOUDY    69  64  84 S12       29.81F
GRAND PRAIRIE  RAIN      66  66 100 SE13G20   29.81F
ADDISON        RAIN      68  68 100 MISG      29.81F
MESQUITE       LGT RAIN  66  66 100 S9        29.86S FOG
LANCASTER      LGT RAIN  65  63  94 S8        29.87S
$$

TXZ091>094-102>105-117-120-121-131>134-271700-
NORTH CENTRAL TEXAS

CITY           SKY/WX    TMP DP  RH WIND       PRES   REMARKS
SHRMAN/DENISON CLOUDY    64  59  83 SE26G33   29.71F
GAINESVILLE    CLOUDY    67  63  87 SW13      29.75S
BOWIE          CLOUDY    65  61  88 S17G25    29.74F
BRIDGEPORT     CLOUDY    64  63  94 S10       29.78R
DECATUR        CLOUDY    64  63  94 S16       29.77R
DENTON         PTSUNNY   67  64  90 S17G24    29.77R
MCKINNEY       LGT RAIN  68  67  96 S13       29.84R
ROCKWALL       LGT RAIN  67  67  99 SE10G18   29.84S
TERRELL        LGT RAIN  67  65  93 S12       29.87R
WAXAHACHIE     LGT RAIN  65  65 100 SE8       29.84F
CLEBURNE       RAIN      64  64 100 SE13G21   29.84F
GRANBURY       TSTM      65  62  91 SE8       29.80S
$$

TXZ083>090-098>101-113>116-127>130-139>142-154-155-271700-
WESTERN NORTH TEXAS

CITY           SKY/WX    TMP DP  RH WIND       PRES   REMARKS
WICHITA FALLS  CLOUDY    70  61  73 S20G29    29.71S
WF-KICKAPOO    CLOUDY    71  61  71 S18G29    29.73S
VERNON         CLOUDY    75  56  51 S13       29.73S
ABILENE        CLOUDY    73  67  81 S16       29.78S
BRECKENRIDGE   CLOUDY    73  64  73 S13       29.75S
GRAHAM         CLOUDY    67  64  90 SE9       29.74S
MINERAL WELLS  CLOUDY    63  62  97 SE10      29.76R
STEPHENVILLE     N/A     63  60  90 S13       29.81S
COMANCHE       CLOUDY    67  65  94 S17G26    29.81R
BROWNWOOD      SUNNY     70  63  78 SE18G25   29.81S
COLEMAN        CLOUDY    71  65  83 SE15      29.81R
$$

TXZ143>147-156>162-174-175-271700-
CENTRAL TEXAS

CITY           SKY/WX    TMP DP  RH WIND       PRES   REMARKS
WACO           LGT RAIN  65  63  93 E12       29.84F
WACO-TSTC      LGT RAIN  64  64 100 E5        29.84F
WACO-MCGREGOR  LGT RAIN N/A N/A N/A E5          N/A
HILLSBORO      CLOUDY    64  63  96 E15G21    29.84F
CORSICANA      LGT RAIN  67  64  90 SE13      29.89F
MEXIA          TSTM      64  64  99 N6        29.87R
HEARNE         TSTM      65  64  95 N9        29.84R
CAMERON        CLOUDY    66  64  94 E8        29.83F
TEMPLE         LGT RAIN  65  63  93 NE12      29.84S
KILLEEN        LGT RAIN  64  63  94 E7        29.84S
KILLEEN-SKYLRK LGT RAIN  64  63  96 E5        29.85R
FORT HOOD      LGT RAIN  63  63 100 E9        29.82S FOG
GATESVILLE     LGT RAIN  64  64 100 SE5       29.86F
HAMILTON       LGT RAIN  64  64 100 NE10      29.87R
LAMPASAS       CLOUDY    65  64  96 E10       29.84S
$$

TXZ095>097-106>112-122>126-135>138-148>153-164>167-271700-
EAST TEXAS

CITY           SKY/WX    TMP DP  RH WIND       PRES   REMARKS
PARIS          CLOUDY    70  61  73 SE17G26   29.81F
SULPHUR SPRNGS RAIN      69  68  97 S10       29.88S
MOUNT PLEASANT CLOUDY    69  69 100 SE10      29.90R
GILMER         HVY RAIN  66  65  97 CALM      29.89R
MINEOLA        HVY RAIN  68  66  94 S5        29.90R
TYLER          LGT RAIN  67  65  93 SE7       29.90R
LONGVIEW       HVY RAIN  67  67 100 SW5       29.89F FOG
MARSHALL       CLOUDY    69  65  89 W5        29.93R
ATHENS         TSTM      64  64 100 SE5       29.89R
PALESTINE      RAIN      66  66 100 N3        29.89F
JACKSONVILLE   TSTM      66  65  97 CALM      29.93S
HENDERSON      TSTM      67  67  99 E3        29.92R
CENTER         CLOUDY    71  70  96 N5        29.85F
NACOGDOCHES    CLOUDY    68  66  94 N12G17    29.84F
LUFKIN         RAIN      68  66  93 N7        29.83R FOG
$$

SUPPLEMENTAL OBSERVATIONS (CENTRAL)

CITY           SKY/WX    TMP DP  RH WIND       PRES   REMARKS
LAKE TEXOMA      N/A     68  63  83 SE14        N/A
PAT MAYSE LAKE   N/A     70  68  94 SE25        N/A
LAKE LIMESTONE   N/A     64  63  94 NE10        N/A
$$

SUPPLEMENTAL OBSERVATIONS (WEST)

CITY           SKY/WX    TMP DP  RH WIND       PRES   REMARKS
MILLERS CREEK    N/A     77  63  61 S13         N/A
COMANCHE         N/A     70  64  83 SE18G26     N/A
HAMBY            N/A     75  66  73 S16         N/A
IVIE RESERVOIR   N/A     73  66  78 E16         N/A
COLORADO BEND    N/A     66  61  82 SE10G20     N/A
$$

SUPPLEMENTAL OBSERVATIONS (EAST)

CITY           SKY/WX    TMP DP  RH WIND       PRES   REMARKS
CLARKSVILLE      N/A     72  68  88 S10         N/A
TEXARKANA        N/A     73  68  83 S3          N/A
LUFKIN           N/A     70  66  88 MISG        N/A
N SABINE NF      N/A     72  70  94 MISG        N/A
S SABINE NF      N/A     70  66  88 S1          N/A
$$

SUPPLEMENTAL OBSERVATIONS ARE A COLLECTION OF AUTOMATED INSTRUMENTS
THAT ARE MAINTAINED BY A VARIETY OF FEDERAL AND STATE AGENCIES.
CERTAIN ELEMENTS...SUCH AS HUMIDITY VALUES AND SUSTAINED WIND
SPEEDS...MAY BE APPROXIMATED.





USA.gov is the U.S. government's official web portal to all federal, state and local government web resources and services.